Harlan, IA

3:59 AM CST on December 15, 2019 (GMT -0600)
Harlan Municipal

Weather History for KHNR - October, 2019

Change the Weather History Date:

Friday, October 18, 2019

  Actual Average Record
Temperature  
Mean Temperature 62 °F -  
Max Temperature 75 °F 57 °F 86 °F (2005)
Min Temperature 50 °F 39 °F 24 °F (1948)
Degree Days  
Heating Degree Days 2    
Growing Degree Days 12 (Base 50)    
Moisture  
Dew Point 42 °F    
Average Humidity 56    
Maximum Humidity 82    
Minimum Humidity 22    
Precipitation  
Precipitation 0.00 in - - ()
Sea Level Pressure  
Sea Level Pressure 29.65 in    
Wind  
Wind Speed 13 mph ()    
Max Wind Speed 33 mph    
Max Gust Speed 47 mph    
Visibility 9.8 miles    
Events      
Averages and records for this station are not official NWS values.
T = Trace of Precipitation, MM = Missing Value Source: Averaged Metar Reports

Daily Weather History Graph

Daily Weather History Graph

Search for Another Location

Airport or City:

Astronomy

Oct. 18, 2019 Rise Set
Actual Time 7:36 AM CDT 6:35 PM CDT
Civil Twilight 7:08 AM CDT 7:03 PM CDT
Nautical Twilight 6:36 AM CDT 7:36 PM CDT
Astronomical Twilight 6:04 AM CDT 8:08 PM CDT
Moon 9:50 PM CDT (10/18) 12:13 PM CDT (10/18)
Length of Visible Light 11h 55m
Length of Day
10h 59m
Waning Gibbous, 78% of the Moon is Illuminated
Oct 18
Waning Gibbous
Oct 21
Last Quarter
Oct 27
New
Nov 4
First Quarter
Nov 12
Full

Hourly Weather History & Observations

Time (CDT) Temp. Dew Point Humidity Pressure Visibility Wind Dir Wind Speed Gust Speed Precip Events Conditions
12:15 AM 51.8 °F 44.6 °F 76% 29.81 in 10.0 mi SSE 8.1 mph - N/A   Clear
12:35 AM 51.8 °F 44.6 °F 76% 29.80 in 10.0 mi SSE 11.5 mph - N/A   Clear
12:55 AM 51.8 °F 44.6 °F 76% 29.80 in 10.0 mi SSE 9.2 mph 15.0 mph N/A   Clear
1:15 AM 51.8 °F 44.6 °F 76% 29.80 in 10.0 mi SSE 10.4 mph 17.3 mph N/A   Clear
1:35 AM 51.8 °F 44.6 °F 76% 29.79 in 10.0 mi SSE 11.5 mph - N/A   Clear
1:55 AM 51.8 °F 44.6 °F 76% 29.79 in 10.0 mi SSE 9.2 mph - N/A   Clear
2:15 AM 51.8 °F 44.6 °F 76% 29.78 in 10.0 mi SSE 10.4 mph - N/A   Clear
2:35 AM 50.0 °F 44.6 °F 82% 29.78 in 10.0 mi SSE 9.2 mph - N/A   Clear
2:55 AM 50.0 °F 44.6 °F 82% 29.77 in 10.0 mi South 8.1 mph - N/A   Clear
3:15 AM 50.0 °F 44.6 °F 82% 29.77 in 10.0 mi SSE 8.1 mph - N/A   Clear
3:35 AM 50.0 °F 44.6 °F 82% 29.76 in 10.0 mi SSE 9.2 mph - N/A   Clear
3:55 AM 50.0 °F 44.6 °F 82% 29.76 in 10.0 mi SSE 6.9 mph 12.7 mph N/A   Clear
4:15 AM 50.0 °F 44.6 °F 82% 29.75 in 10.0 mi SSE 9.2 mph - N/A   Clear
4:35 AM 50.0 °F 44.6 °F 82% 29.75 in 10.0 mi SSE 10.4 mph - N/A   Clear
4:55 AM 50.0 °F 44.6 °F 82% 29.74 in 10.0 mi South 9.2 mph - N/A   Clear
5:15 AM 50.0 °F 44.6 °F 82% 29.73 in 10.0 mi SSE 8.1 mph - N/A   Clear
5:35 AM 50.0 °F 44.6 °F 82% 29.73 in 10.0 mi SSE 9.2 mph - N/A   Clear
5:55 AM 50.0 °F 44.6 °F 82% 29.72 in 10.0 mi SSE 10.4 mph - N/A   Clear
6:15 AM 50.0 °F 44.6 °F 82% 29.72 in 10.0 mi SSE 10.4 mph 16.1 mph N/A   Clear
6:35 AM 50.0 °F 44.6 °F 82% 29.71 in 10.0 mi SSE 10.4 mph 17.3 mph N/A   Clear
6:55 AM 50.0 °F 44.6 °F 82% 29.71 in 10.0 mi SSE 10.4 mph 17.3 mph N/A   Clear
7:15 AM 50.0 °F 44.6 °F 82% 29.70 in 10.0 mi SSE 12.7 mph - N/A   Clear
7:35 AM 50.0 °F 44.6 °F 82% 29.71 in 10.0 mi SSE 12.7 mph - N/A   Clear
7:55 AM 50.0 °F 44.6 °F 82% 29.71 in 10.0 mi SSE 15.0 mph 20.7 mph N/A   Clear
8:15 AM 50.0 °F 44.6 °F 82% 29.70 in 10.0 mi SSE 13.8 mph 19.6 mph N/A   Clear
8:35 AM 51.8 °F 44.6 °F 76% 29.70 in 10.0 mi SSE 15.0 mph 23.0 mph N/A   Clear
8:55 AM 51.8 °F 44.6 °F 76% 29.70 in 10.0 mi SSE 15.0 mph - N/A   Clear
9:15 AM 53.6 °F 44.6 °F 72% 29.69 in 10.0 mi SSE 17.3 mph - N/A   Clear
9:35 AM 55.4 °F 44.6 °F 67% 29.68 in 10.0 mi South 20.7 mph 27.6 mph N/A   Clear
9:55 AM 57.2 °F 42.8 °F 59% 29.67 in 10.0 mi SSE 20.7 mph 27.6 mph N/A   Clear
10:15 AM 59.0 °F 42.8 °F 55% 29.66 in 10.0 mi South 18.4 mph 27.6 mph N/A   Clear
10:35 AM 60.8 °F 42.8 °F 52% 29.65 in 10.0 mi South 21.9 mph 33.4 mph N/A   Clear
10:55 AM 62.6 °F 41.0 °F 45% 29.63 in 10.0 mi South 21.9 mph 31.1 mph N/A   Clear
11:15 AM 62.6 °F 41.0 °F 45% 29.62 in 10.0 mi South 25.3 mph 36.8 mph N/A   Clear
11:35 AM 66.2 °F 41.0 °F 40% 29.60 in 10.0 mi SSE 24.2 mph 35.7 mph N/A   Clear
11:55 AM 68.0 °F 39.2 °F 35% 29.59 in 10.0 mi South 26.5 mph 38.0 mph N/A   Clear
12:15 PM 68.0 °F 39.2 °F 35% 29.59 in 10.0 mi South 28.8 mph 38.0 mph N/A   Clear
12:35 PM 69.8 °F 39.2 °F 33% 29.59 in 10.0 mi South 21.9 mph 36.8 mph N/A   Clear
12:55 PM 71.6 °F 39.2 °F 31% 29.58 in 10.0 mi South 24.2 mph 38.0 mph N/A   Clear
1:15 PM 73.4 °F 37.4 °F 27% 29.56 in 10.0 mi South 27.6 mph 42.6 mph N/A   Clear
1:35 PM 73.4 °F 37.4 °F 27% 29.54 in 10.0 mi South 27.6 mph 40.3 mph N/A   Clear
1:55 PM 73.4 °F 37.4 °F 27% 29.52 in 10.0 mi South 25.3 mph 39.1 mph N/A   Clear
2:15 PM 75.2 °F 37.4 °F 25% 29.51 in 10.0 mi SSE 33.4 mph 41.4 mph N/A   Clear
2:35 PM 75.2 °F 37.4 °F 25% 29.50 in 10.0 mi South 32.2 mph 47.2 mph N/A   Clear
2:55 PM 75.2 °F 37.4 °F 25% 29.50 in 10.0 mi South 28.8 mph 46.0 mph N/A   Clear
3:15 PM 75.2 °F 37.4 °F 25% 29.50 in 10.0 mi South 28.8 mph 44.9 mph N/A   Clear
3:35 PM 75.2 °F 35.6 °F 24% 29.49 in 10.0 mi South 28.8 mph 43.7 mph N/A   Clear
3:55 PM 75.2 °F 35.6 °F 24% 29.49 in 10.0 mi South 31.1 mph 41.4 mph N/A   Clear
4:15 PM 75.2 °F 33.8 °F 22% 29.50 in 10.0 mi South 28.8 mph 39.1 mph N/A   Clear
4:35 PM 75.2 °F 35.6 °F 24% 29.52 in 10.0 mi South 20.7 mph 35.7 mph N/A   Clear
5:15 PM 73.4 °F 35.6 °F 25% 29.54 in 10.0 mi South 23.0 mph 33.4 mph N/A   Clear
5:35 PM 73.4 °F 37.4 °F 27% 29.55 in 10.0 mi South 19.6 mph 29.9 mph N/A   Clear
5:55 PM 71.6 °F 37.4 °F 29% 29.56 in 10.0 mi South 13.8 mph 26.5 mph N/A   Clear
6:15 PM 69.8 °F 37.4 °F 31% 29.57 in 10.0 mi South 18.4 mph - N/A   Clear
6:35 PM 69.8 °F 39.2 °F 33% 29.57 in 8.0 mi South 16.1 mph 23.0 mph N/A   Clear
6:55 PM 68.0 °F 39.2 °F 35% 29.58 in 10.0 mi South 13.8 mph - N/A   Clear
7:15 PM 66.2 °F 39.2 °F 37% 29.60 in 10.0 mi South 13.8 mph - N/A   Clear
7:35 PM 66.2 °F 41.0 °F 40% 29.61 in 10.0 mi South 12.7 mph 18.4 mph N/A   Clear
7:55 PM 64.4 °F 41.0 °F 42% 29.61 in 10.0 mi South 11.5 mph - N/A   Clear
8:15 PM 62.6 °F 41.0 °F 45% 29.62 in 10.0 mi South 10.4 mph - N/A   Clear
8:35 PM 62.6 °F 42.8 °F 48% 29.63 in 10.0 mi South 9.2 mph - N/A   Clear
8:55 PM 62.6 °F 42.8 °F 48% 29.63 in 10.0 mi South 13.8 mph - N/A   Clear
9:15 PM 60.8 °F 42.8 °F 52% 29.63 in 10.0 mi South 10.4 mph 17.3 mph N/A   Clear
9:35 PM 60.8 °F 42.8 °F 52% 29.64 in 10.0 mi South 10.4 mph - N/A   Scattered Clouds
9:55 PM 60.8 °F 42.8 °F 52% 29.65 in 10.0 mi South 6.9 mph - N/A   Overcast
10:15 PM 59.0 °F 44.6 °F 59% 29.67 in 7.0 mi WSW 8.1 mph - N/A   Mostly Cloudy
10:35 PM 57.2 °F 44.6 °F 63% 29.68 in 10.0 mi West 4.6 mph - N/A   Mostly Cloudy
10:55 PM 57.2 °F 46.4 °F 67% 29.68 in 8.0 mi South 5.8 mph - N/A   Overcast
11:15 PM 57.2 °F 46.4 °F 67% 29.68 in 10.0 mi South 4.6 mph - N/A   Mostly Cloudy
11:35 PM 55.4 °F 46.4 °F 72% 29.69 in 5.0 mi South 3.5 mph - N/A   Haze
11:55 PM 57.2 °F 46.4 °F 67% 29.69 in 10.0 mi South 6.9 mph - N/A   Mostly Cloudy